Home   Weather   North Cape   Past weeks
Flag for Norway

Past Weather in North Cape, Norway — Yesterday and Last 2 Weeks

Now
45 °F

Cool.


Feels Like: 41 °F
Forecast: 44 / 42 °F
Wind: 7 mph from South

Location: Honningsvag / Valan

Current Time: Apr 20, 2019 at 10:35:29 pm

Latest Report: Apr 20, 2019 at 9:00 pm


Visibility: N/A

Pressure: 29.92 "Hg

Humidity: 65%

Dew Point: 34 °F

Location of North CapeLocation

Past Weather in North Cape — Graph

°F

North Cape Temperature Yesterday

Maximum temperature yesterday: 44 °F (at 3:00 pm)
Minimum temperature yesterday: 39 °F (at 11:00 pm)
Average temperature yesterday: 41 °F

High & Low Weather Summary for the Past Weeks

 TemperatureHumidityPressure
High51 °F (Apr 20, 4:00 pm)94% (Apr 20, 7:00 am)30.59 "Hg (Apr 20, 7:00 am)
Low23 °F (Apr 9, 11:00 pm)24% (Apr 7, 7:00 am)29.92 "Hg (Apr 20, 9:00 pm)
Average36 °F77%30.32 "Hg
* Reported Apr 5 9:00 pm — Apr 20 9:00 pm, North Cape. Weather by CustomWeather, © 2019

Note: Actual official high and low records may vary slightly from our data, if they occured in-between our weather recording intervals... More about our weather records

Advertising

North Cape Weather History for the Previous 24 Hours

Scroll right to see more
 ConditionsComfort  
Time TempWeatherWind HumidityBarometerVisibility
9:00 pm
Sat, Apr 20
45 °FCool.7 mph65%29.92 "HgN/A
8:00 pm44 °FQuite cool.7 mph69%29.96 "HgN/A
7:00 pm47 °FCool.6 mph61%29.99 "HgN/A
6:00 pm50 °FCool.6 mph53%30.01 "HgN/A
5:00 pm50 °FCool.5 mph53%30.03 "HgN/A
4:00 pm51 °FCool.10 mph49%30.05 "HgN/A
3:00 pm51 °FCool.14 mph53%30.06 "HgN/A
2:00 pm51 °FCool.10 mph59%30.09 "HgN/A
1:00 pm48 °FCool.10 mph71%30.11 "HgN/A
12:00 pm45 °FCool.12 mph80%30.11 "HgN/A
11:00 am44 °FQuite cool.12 mph85%30.12 "HgN/A
10:00 am44 °FQuite cool.13 mph88%30.12 "HgN/A
9:00 am42 °FQuite cool.13 mph93%30.12 "HgN/A
8:00 am42 °FQuite cool.14 mph92%30.11 "HgN/A
7:00 am42 °FQuite cool.15 mph94%30.13 "HgN/A
6:00 am43 °FQuite cool.15 mph91%30.13 "HgN/A
5:00 am43 °FQuite cool.16 mph90%30.13 "HgN/A
4:00 am42 °FQuite cool.13 mph91%30.14 "HgN/A
3:00 am43 °FQuite cool.14 mph89%30.15 "HgN/A
2:00 am44 °FQuite cool.14 mph87%30.16 "HgN/A
1:00 am43 °FQuite cool.8 mph88%30.16 "HgN/A
12:00 am42 °FQuite cool.8 mph83%30.17 "HgN/A
11:00 pm
Fri, Apr 19
39 °FChilly.7 mph86%30.18 "HgN/A
10:00 pm40 °FChilly.9 mph81%30.19 "HgN/A
Weather by CustomWeather, © 2019

See weather overview